Location: Bouchavesnes-Bergen
(49.9859°N, 2.9203°E)
Time: 04:52:44
(UTC+00:00)

IDEFIX/ARIANE 42P - Visible Passes

Search period start: 25 September 2022 00:00
Search period end: 05 October 2022 00:00
Orbit: 785 x 801 km, 98.5° (Epoch: 24 September)

Date Brightness Start Highest point End Pass type
(mag) Time Alt. Az. Time Alt. Az. Time Alt. Az.
25 Sep 3.5 01:49:06 10° NNE 01:52:58 45° NE 01:52:58 45° NE visible
25 Sep 3.8 03:29:18 10° N 03:33:33 25° WNW 03:33:46 25° WNW visible
26 Sep 4.3 01:20:50 10° NNE 01:24:01 29° ENE 01:24:01 29° ENE visible
26 Sep 3.3 03:00:24 10° N 03:04:48 39° NW 03:04:48 39° NW visible
27 Sep 4.9 00:52:54 10° NE 00:55:03 18° ENE 00:55:03 18° ENE visible
27 Sep 3.1 02:31:40 10° N 02:35:50 52° NNW 02:35:50 52° NNW visible
27 Sep 4.5 04:13:09 10° NNW 04:15:31 13° NW 04:16:37 12° WNW visible
28 Sep 5.4 00:25:49 10° ENE 00:26:05 11° ENE 00:26:05 11° ENE visible
28 Sep 3.4 02:03:06 10° NNE 02:06:52 47° NNE 02:06:52 47° NNE visible
28 Sep 4.0 03:43:39 10° N 03:47:26 20° WNW 03:47:39 20° WNW visible
29 Sep 4.1 01:34:44 10° NNE 01:37:54 32° NE 01:37:54 32° NE visible
29 Sep 3.6 03:14:37 10° N 03:18:41 31° NW 03:18:41 31° NW visible
30 Sep 4.8 01:06:36 10° NE 01:08:56 21° ENE 01:08:56 21° ENE visible
30 Sep 3.3 02:45:48 10° N 02:49:43 42° NNW 02:49:43 42° NNW visible
30 Sep 4.6 04:28:25 10° NW 04:29:18 10° NW 04:30:12 10° WNW visible
01 Oct 5.3 00:38:57 10° NE 00:39:58 13° ENE 00:39:58 13° ENE visible
01 Oct 3.5 02:17:09 10° NNE 02:20:45 45° N 02:20:45 45° N visible
01 Oct 4.3 03:58:05 10° NNW 04:01:16 16° NW 04:01:32 16° WNW visible
02 Oct 4.0 01:48:41 10° NNE 01:51:47 35° NE 01:51:47 35° NE visible
02 Oct 3.9 03:28:52 10° N 03:32:34 25° NW 03:32:34 25° NW visible
03 Oct 4.6 01:20:24 10° NNE 01:22:49 24° NE 01:22:49 24° NE visible
03 Oct 3.6 02:59:58 10° N 03:03:36 34° NNW 03:03:36 34° NNW visible
04 Oct 5.1 00:52:27 10° NE 00:53:50 15° NE 00:53:50 15° NE visible
04 Oct 3.6 02:31:14 10° N 02:34:38 39° N 02:34:38 39° N visible
04 Oct 4.5 04:12:43 10° NNW 04:15:05 13° NW 04:15:25 13° NW visible
